Home   Weather   Fort-de-France   Past weeks

Flag for Martinique Past Weather in Fort-de-France, Martinique — Yesterday and Last 2 Weeks

Now
77 °F

Passing clouds.


Feels Like: 78 °F
Forecast: 77 / 86 °F
Wind: 2 mph from North

Location: Le Lamentin Airport

Current Time: Oct 1, 2016 at 4:52:31 AM

Latest Report: Oct 1, 2016 at 4:30 AM


Visibility: N/A

Pressure: 29.80 "Hg

Humidity: 89%

Dew Point: 73 °F

Location of Fort-de-FranceLocation

Past Weather in Fort-de-France — Graph

°F

Fort-de-France Temperature Yesterday

Maximum temperature yesterday: 88 °F (at 10:00 AM)
Minimum temperature yesterday: 75 °F (at 5:00 AM)
Average temperature yesterday: 82 °F

High & Low Weather Summary for the Past Weeks

 TemperatureHumidityPressure
High91 °F (Sep 21, 3:00 PM)100% (Sep 18, 7:30 AM)30.04 "Hg (Sep 18, 7:30 AM)
Low72 °F (Sep 21, 4:00 AM)49% (Sep 21, 3:00 PM)29.77 "Hg (Sep 28, 1:30 PM)
Average82 °F80%29.92 "Hg
* Reported Sep 16 3:00 AM — Oct 1 3:30 AM, Fort-de-France, Weather by CustomWeather, © 2016

Note: Actual official high and low records may vary slightly from our data, if they occured in-between our weather recording intervals... More about our weather records

Advertising

Fort-de-France Weather History for the Previous 24 Hours

Scroll right to see more
 ConditionsComfort  
Time TempWeatherWind HumidityBarometerVisibility
3:30 AM
Sat, Oct 1
77 °FPartly cloudy.2 mph89%29.80 "HgN/A
3:00 AM77 °FLight rain. Passing clouds.2 mph94%29.80 "HgN/A
2:30 AM77 °FPassing clouds.1 mph89%29.80 "HgN/A
2:00 AM77 °FPassing clouds.3 mph89%29.80 "HgN/A
1:30 AM77 °FClear.No wind89%29.80 "HgN/A
1:00 AM77 °FPassing clouds.No wind89%29.83 "HgN/A
12:30 AM77 °FPassing clouds.2 mph94%29.83 "HgN/A
12:00 AM79 °FPassing clouds.1 mph89%29.86 "HgN/A
11:30 PM
Fri, Sep 30
79 °FPassing clouds.3 mph89%29.86 "HgN/A
11:00 PM79 °FClear.3 mph84%29.86 "HgN/A
10:30 PM79 °FClear.No wind84%29.86 "HgN/A
10:00 PM79 °FPassing clouds.2 mph84%29.86 "HgN/A
9:30 PM79 °FClear.1 mph89%29.86 "HgN/A
9:00 PM79 °FPassing clouds.2 mph89%29.86 "HgN/A
8:30 PM79 °FPassing clouds.1 mph89%29.86 "HgN/A
8:00 PM79 °FLight rain. Passing clouds.3 mph84%29.83 "HgN/A
7:30 PM81 °FPassing clouds.2 mph79%29.83 "HgN/A
7:00 PM81 °FClear.5 mph79%29.83 "HgN/A
6:30 PM82 °FPassing clouds.5 mph74%29.83 "HgN/A
6:00 PM82 °FClear.6 mph74%29.80 "HgN/A
5:30 PM82 °FPassing clouds.8 mph74%29.80 "HgN/A
5:00 PM84 °FPassing clouds.9 mph70%29.80 "HgN/A
4:30 PM86 °FPassing clouds.9 mph66%29.80 "HgN/A
4:00 PM86 °FPassing clouds.12 mph66%29.80 "HgN/A
3:30 PM86 °FScattered clouds.10 mph66%29.80 "HgN/A
3:00 PM88 °FScattered clouds.14 mph66%29.80 "HgN/A
2:30 PM88 °FScattered clouds.10 mph66%29.83 "HgN/A
2:00 PM88 °FPassing clouds.10 mph62%29.83 "HgN/A
1:30 PM88 °FPassing clouds.12 mph59%29.83 "HgN/A
1:00 PM88 °FPassing clouds.14 mph59%29.86 "HgN/A
12:30 PM88 °FClear.12 mph62%29.86 "HgN/A
12:00 PM88 °FPassing clouds.12 mph59%29.89 "HgN/A
11:30 AM88 °FPassing clouds.13 mph62%29.89 "HgN/A
11:00 AM88 °FPassing clouds.13 mph62%29.89 "HgN/A
10:30 AM88 °FClear.12 mph62%29.89 "HgN/A
10:00 AM88 °FClear.13 mph62%29.92 "HgN/A
9:30 AM86 °FClear.13 mph66%29.92 "HgN/A
9:00 AM86 °FScattered clouds.10 mph66%29.89 "HgN/A
8:30 AM86 °FPassing clouds.9 mph66%29.89 "HgN/A
8:00 AM84 °FClear.7 mph74%29.89 "HgN/A
7:30 AM81 °FClear.No wind84%29.89 "HgN/A
7:00 AM77 °FPassing clouds.1 mph94%29.89 "HgN/A
6:30 AM75 °FPassing clouds.1 mph89%29.86 "HgN/A
6:00 AM75 °FPassing clouds.No wind89%29.86 "HgN/A
5:30 AM75 °FPassing clouds.No wind89%29.86 "HgN/A
5:00 AM75 °FClear.2 mph89%29.86 "HgN/A
4:30 AM77 °FClear.2 mph83%29.86 "HgN/A
4:00 AM79 °FPassing clouds.No wind79%29.86 "HgN/A
Weather by CustomWeather, © 2016

See weather overviewHow to use our weather pages